Location: Unspecified
(0.0000°N, 0.0000°E)
Time: 17:36:07
(UTC+00:00)

CUTE 1.7 + AOD 2 - Pass Details

Date: 14 December 2017
Orbit: 594 x 613 km, 97.5° (Epoch: 19 June)

Event Time Altitude Azimuth Distance (km) Brightness Sun altitude
Rises 19:11:51 0° 188° (S) 2,836 ? -17.6°
Reaches altitude 10° 19:14:14 10° 199° (SSW) 1,934 ? -18.2°
Maximum altitude 19:17:50 28° 258° (WSW) 1,129 ? -19.0°
Drops below altitude 10° 19:21:27 10° 318° (NW) 1,936 ? -19.8°
Sets 19:23:52 0° 330° (NNW) 2,839 ? -20.3°
